This is the latest recevied weather packets stored in our database for station/object K3JSE-4. If no packets are shown the sender has not sent any weather packets the latest 10 day(s).
| Time | Temp. | Humidity | Pressure | Rain* | Wind** | Luminosity | Snow |
|---|---|---|---|---|---|---|---|
| 1777394144 | 14.44° C | 56% | 1021.5 hPa | 0 mm | - | - | - |
| 1777393844 | 14.44° C | 57% | 1021.5 hPa | 0 mm | - | - | - |
| 1777393544 | 15° C | 54% | 1021.6 hPa | 0 mm | - | - | - |
| 1777393243 | 15° C | 55% | 1021.7 hPa | 0 mm | - | - | - |
| 1777392944 | 14.44° C | 57% | 1021.9 hPa | 0 mm | - | - | - |
| 1777392644 | 13.89° C | 57% | 1021.9 hPa | 0 mm | - | - | - |
| 1777392343 | 13.89° C | 58% | 1022 hPa | 0 mm | - | - | - |
| 1777392043 | 13.33° C | 58% | 1021.9 hPa | 0 mm | - | - | - |
| 1777391743 | 13.33° C | 58% | 1021.9 hPa | 0 mm | - | - | - |
| 1777391443 | 13.33° C | 59% | 1021.8 hPa | 0 mm | - | - | - |
| 1777391143 | 13.33° C | 58% | 1021.9 hPa | 0 mm | - | - | - |
| 1777390843 | 13.33° C | 59% | 1022 hPa | 0 mm | - | - | - |
| 1777390543 | 12.78° C | 61% | 1022 hPa | 0 mm | - | - | - |
| 1777390243 | 12.78° C | 62% | 1022.1 hPa | 0 mm | - | - | - |
| 1777389943 | 12.78° C | 64% | 1022.1 hPa | 0 mm | - | - | - |
| 1777389643 | 12.22° C | 65% | 1022.3 hPa | 0 mm | - | - | - |
| 1777389343 | 12.22° C | 63% | 1022.3 hPa | 0 mm | - | - | - |
| 1777389043 | 12.22° C | 65% | 1022.4 hPa | 0 mm | - | - | - |
| 1777388743 | 12.22° C | 66% | 1022.3 hPa | 0 mm | - | - | - |
| 1777388443 | 11.67° C | 67% | 1022.3 hPa | 0 mm | - | - | - |
| 1777388143 | 11.67° C | 68% | 1022.5 hPa | 0 mm | - | - | - |
| 1777387843 | 11.67° C | 68% | 1022.5 hPa | 0 mm | - | - | - |
| 1777387543 | 11.67° C | 67% | 1022.6 hPa | 0 mm | - | - | - |
| 1777387243 | 11.67° C | 68% | 1022.6 hPa | 0 mm | - | - | - |
| 1777386943 | 11.67° C | 68% | 1022.6 hPa | 0 mm | - | - | - |
* Rain latest hour (hover to see other rain measurements)
** Current wind speed in m/s (hover to see current wind gust speed)